Zurück zum Katalog

DELTA 1 DEB

AktivSSO
NORAD 12170·DEBRIS·🇺🇸 United States

Gestartet Mar 5, 1978 von Vandenberg Space Force Base

Loading…

Nächste Überflüge (nächste 24 Stunden)

TLE

AktuellSource: Space-Track

Epoche: Sep 13, 2026, 14:46 UTC

1 12170U 78026K   26256.61573919  .00000230  00000-0  12409-3 0  9990
2 12170  98.8533 292.1588 0043872 139.4033 346.4309 14.21562174355512

Verfolge DELTA 1 DEB in Echtzeit mit AllMySat

Download on the App Store